User: anonymous   Login
Location: Unspecified
(0.0000°N, 0.0000°E)
Time: 06:09:59
(UTC+00:00)
Language:

IGS OPTICAL 5 - Orbit

View from above orbital plane
View from above orbital plane
View from above satellite
View from above satellite

Ground track
Ground track

The orbit data is extracted from the following two-line orbital elements,

1 40538U 15015A   19259.91895567 0.00000000  00000-0  00000-0 0    01
2 40538  97.4422 333.3977 0003112  55.3347 304.6651 15.17646091    04
Epoch (UTC): 16 September 2019 22:03:17
Eccentricity: 0.0003112
inclination: 97.4422°
perigee height: 511 km
apogee height: 515 km
right ascension of ascending node: 333.3977°
argument of perigee: 55.3347°
revolutions per day: 15.17646091
mean anomaly at epoch: 304.6651°
orbit number at epoch: 0

The dashed part of the orbit path shows where the satellite is in the earth's shadow,  

DLR